Weather History for K2I0 - March, 2013

Change the Weather History Date:

Monday, March 4, 2013

  Actual Average (KOWB) Record (KOWB)
Temperature  
Mean Temperature 44 °F -  
Max Temperature 56 °F 55 °F 80 °F (1983)
Min Temperature 32 °F 35 °F 4 °F (1978)
Degree Days  
Heating Degree Days 21    
Moisture  
Dew Point 29 °F    
Average Humidity 55    
Maximum Humidity 88    
Minimum Humidity 39    
Precipitation  
Precipitation 0.00 in - - ()
Sea Level Pressure  
Sea Level Pressure 29.99 in    
Wind  
Wind Speed 5 mph (SE)    
Max Wind Speed 16 mph    
Max Gust Speed 22 mph    
Visibility 10 miles    
Events Rain    
Averages and records for this station are not official NWS values.
T = Trace of Precipitation, MM = Missing Value Source: NWS Daily Summary

Daily Weather History Graph

Daily Weather History Graph

Search for Another Location

Airport or City:

Trip Planner

Search our weather history database for the weather conditions in past years. The results will help you decide how hot, cold, wet, or windy it might be!

Date:

Astronomy

Mar. 04, 2013 Rise Set
Actual Time 6:16 AM CST 5:46 PM CST
Civil Twilight 5:50 AM CST 6:12 PM CST
Nautical Twilight 5:19 AM CST 6:43 PM CST
Astronomical Twilight 4:49 AM CST 7:13 PM CST
Moon 12:20 AM CST (3/4) 10:33 AM CST (3/4)
Length of Visible Light 12h 22m
Length of Day
11h 30m
Waning Gibbous, 52% of the Moon is Illuminated
Mar 4
Waning Gibbous
Mar 4
Last Quarter
Mar 11
New
Mar 19
First Quarter
Mar 27
Full

Hourly Weather History & Observations

Time (CST) Temp. Windchill Dew Point Humidity Pressure Visibility Wind Dir Wind Speed Gust Speed Precip Events Conditions
12:15 AM 32.2 °F - 28.9 °F 88% 30.12 in 10.0 mi Calm Calm - N/A   Overcast
12:35 AM 32.9 °F - 27.7 °F 81% 30.12 in 10.0 mi Calm Calm - N/A   Overcast
12:55 AM 33.1 °F - 28.0 °F 82% 30.12 in 10.0 mi Calm Calm - N/A   Overcast
1:15 AM 33.4 °F - 28.2 °F 81% 30.13 in 10.0 mi Calm Calm - N/A   Overcast
1:35 AM 33.8 °F - 24.8 °F 70% 30.13 in 10.0 mi Calm Calm - N/A   Overcast
1:55 AM 33.8 °F - 25.3 °F 71% 30.13 in 10.0 mi Calm Calm - N/A   Overcast
2:15 AM 34.0 °F - 24.6 °F 69% 30.12 in 10.0 mi Calm Calm - N/A   Overcast
2:55 AM 34.3 °F - 24.6 °F 68% 30.13 in 10.0 mi Calm Calm - N/A   Overcast
3:15 AM 34.2 °F - 25.9 °F 72% 30.12 in 10.0 mi Calm Calm - N/A   Overcast
3:35 AM 34.3 °F 31.4 °F 23.9 °F 66% 30.12 in 10.0 mi SE 3.5 mph - N/A   Overcast
3:55 AM 34.3 °F 30.2 °F 24.8 °F 68% 30.11 in 10.0 mi ESE 4.6 mph - N/A   Overcast
4:15 AM 34.3 °F 29.2 °F 25.0 °F 69% 30.11 in 10.0 mi ESE 5.8 mph - N/A   Overcast
4:35 AM 34.3 °F 29.2 °F 24.3 °F 67% 30.11 in 10.0 mi SE 5.8 mph - N/A   Overcast
4:55 AM 34.7 °F 29.6 °F 22.1 °F 60% 30.11 in 10.0 mi SE 5.8 mph - N/A   Overcast
5:15 AM 34.9 °F 29.9 °F 22.3 °F 60% 30.11 in 10.0 mi SE 5.8 mph - N/A   Overcast
5:35 AM 34.7 °F 29.6 °F 22.3 °F 61% 30.11 in 10.0 mi SE 5.8 mph - N/A   Overcast
5:55 AM 34.7 °F 30.6 °F 22.5 °F 61% 30.11 in 10.0 mi SE 4.6 mph - N/A   Overcast
6:15 AM 34.7 °F 30.6 °F 22.5 °F 61% 30.11 in 10.0 mi SE 4.6 mph - N/A   Overcast
6:35 AM 34.7 °F 29.6 °F 22.8 °F 62% 30.11 in 10.0 mi SSE 5.8 mph - N/A Rain Light Rain
6:55 AM 34.2 °F 26.8 °F 24.6 °F 68% 30.10 in 10.0 mi SE 9.2 mph - N/A   Overcast
7:15 AM 34.5 °F 29.4 °F 24.3 °F 66% 30.11 in 10.0 mi SE 5.8 mph - N/A   Overcast
7:35 AM 34.9 °F 28.3 °F 25.0 °F 67% 30.12 in 10.0 mi South 8.1 mph - N/A   Mostly Cloudy
7:55 AM 35.6 °F 29.9 °F 25.3 °F 66% 30.11 in 10.0 mi SE 6.9 mph - N/A   Scattered Clouds
8:15 AM 36.5 °F 31.0 °F 24.8 °F 63% 30.10 in 10.0 mi SE 6.9 mph - N/A   Scattered Clouds
8:35 AM 37.0 °F 30.4 °F 24.6 °F 61% 30.09 in 10.0 mi SSE 9.2 mph - N/A   Scattered Clouds
8:55 AM 39.0 °F 32.3 °F 25.5 °F 58% 30.09 in 10.0 mi South 10.4 mph - N/A   Clear
9:15 AM 40.8 °F 34.1 °F 26.2 °F 56% 30.09 in 10.0 mi South 11.5 mph - N/A   Scattered Clouds
9:35 AM 42.4 °F 36.1 °F 26.4 °F 53% 30.08 in 10.0 mi South 11.5 mph - N/A   Clear
9:55 AM 42.1 °F 37.1 °F 26.2 °F 53% 30.08 in 10.0 mi SSE 8.1 mph - N/A   Mostly Cloudy
10:15 AM 43.2 °F 37.0 °F 26.6 °F 52% 30.05 in 10.0 mi SE 11.5 mph - N/A   Overcast
10:35 AM 43.9 °F 37.5 °F 27.0 °F 51% 30.04 in 10.0 mi SSE 12.7 mph - N/A   Overcast
10:55 AM 45.9 °F 41.2 °F 27.9 °F 49% 30.04 in 10.0 mi SE 9.2 mph 17.3 mph N/A   Mostly Cloudy
11:15 AM 47.1 °F - 28.6 °F 49% 30.03 in 10.0 mi SSE 10.4 mph - N/A   Clear
11:35 AM 47.8 °F - 27.7 °F 46% 30.01 in 10.0 mi SE 11.5 mph 16.1 mph N/A   Clear
11:55 AM 49.5 °F - 28.8 °F 45% 30.00 in 10.0 mi SSE 9.2 mph 17.3 mph N/A   Clear
12:15 PM 50.7 °F - 28.4 °F 42% 29.99 in 10.0 mi SSE 15.0 mph 19.6 mph N/A   Clear
12:55 PM 52.7 °F - 29.7 °F 41% 29.95 in 10.0 mi South 11.5 mph 18.4 mph N/A   Clear
1:15 PM 52.0 °F - 29.5 °F 42% 29.93 in 10.0 mi SSE 11.5 mph 16.1 mph N/A   Clear
1:35 PM 54.0 °F - 30.6 °F 41% 29.92 in 10.0 mi SSE 12.7 mph 17.3 mph N/A   Clear
1:55 PM 54.7 °F - 30.6 °F 40% 29.90 in 10.0 mi SSE 16.1 mph 21.9 mph N/A   Clear
2:15 PM 55.2 °F - 31.3 °F 40% 29.88 in 10.0 mi SE 12.7 mph 18.4 mph N/A   Clear
2:35 PM 54.3 °F - 31.1 °F 41% 29.88 in 10.0 mi SE 9.2 mph 19.6 mph N/A   Clear
2:55 PM 56.5 °F - 31.8 °F 39% 29.87 in 10.0 mi SE 12.7 mph 19.6 mph N/A   Clear
3:15 PM 55.9 °F - 31.6 °F 40% 29.86 in 10.0 mi SE 9.2 mph - N/A   Clear
3:35 PM 56.1 °F - 31.6 °F 39% 29.87 in 10.0 mi SE 12.7 mph 17.3 mph N/A   Clear
3:55 PM 55.9 °F - 32.4 °F 41% 29.87 in 10.0 mi SSE 8.1 mph - N/A   Scattered Clouds
4:15 PM 56.3 °F - 32.4 °F 40% 29.87 in 10.0 mi SSE 8.1 mph - N/A   Overcast
4:35 PM 56.3 °F - 32.0 °F 40% 29.87 in 10.0 mi SSE 9.2 mph - N/A   Overcast
4:55 PM 55.8 °F - 31.5 °F 40% 29.87 in 10.0 mi SSE 6.9 mph - N/A   Overcast
5:15 PM 54.9 °F - 31.8 °F 42% 29.88 in 10.0 mi SSE 5.8 mph - N/A   Overcast
5:35 PM 54.5 °F - 32.0 °F 42% 29.88 in 10.0 mi SSE 4.6 mph - N/A   Overcast
5:55 PM 54.1 °F - 32.4 °F 44% 29.88 in 10.0 mi ESE 6.9 mph - N/A   Overcast
6:15 PM 53.1 °F - 34.0 °F 48% 29.88 in 10.0 mi ESE 6.9 mph - N/A   Overcast
6:35 PM 52.2 °F - 34.0 °F 50% 29.88 in 10.0 mi ESE 6.9 mph - N/A   Overcast
6:55 PM 52.2 °F - 33.4 °F 49% 29.89 in 10.0 mi SE 6.9 mph - N/A   Overcast
7:15 PM 52.5 °F - 32.7 °F 47% 29.88 in 10.0 mi SE 6.9 mph - N/A   Overcast
7:35 PM 52.7 °F - 32.7 °F 47% 29.88 in 10.0 mi SE 6.9 mph - N/A   Overcast
7:55 PM 50.7 °F - 35.1 °F 55% 29.88 in 10.0 mi ESE 6.9 mph - N/A   Overcast
8:35 PM 50.9 °F - 34.0 °F 52% 29.88 in 10.0 mi ESE 5.8 mph - N/A   Overcast
8:55 PM 50.7 °F - 34.2 °F 53% 29.88 in 10.0 mi ESE 5.8 mph - N/A   Overcast
9:15 PM 50.4 °F - 34.7 °F 55% 29.87 in 10.0 mi ESE 5.8 mph - N/A   Overcast
9:35 PM 50.9 °F - 33.8 °F 52% 29.87 in 10.0 mi SE 5.8 mph - N/A   Overcast
9:55 PM 50.9 °F - 34.2 °F 53% 29.87 in 10.0 mi SE 5.8 mph - N/A   Overcast
10:15 PM 50.9 °F - 33.8 °F 52% 29.86 in 10.0 mi SE 6.9 mph - N/A   Overcast
10:35 PM 50.9 °F - 34.3 °F 53% 29.86 in 10.0 mi ESE 8.1 mph - N/A   Overcast
10:55 PM 51.1 °F - 34.2 °F 52% 29.85 in 10.0 mi SE 4.6 mph - N/A   Overcast
11:15 PM 50.9 °F - 34.2 °F 53% 29.85 in 10.0 mi SE 4.6 mph - N/A   Overcast
11:35 PM 50.2 °F - 35.4 °F 57% 29.84 in 10.0 mi SE 3.5 mph - N/A Rain Light Rain
11:55 PM 50.9 °F - 36.1 °F 57% 29.83 in 10.0 mi SE 4.6 mph - N/A   Light Drizzle